AirNav   Bose ProFlight Series 2 Headset
 
 666 users online  

H37 Herlong Airport
Herlong, California, USA

GOING TO HERLONG?


FAA INFORMATION EFFECTIVE 30 JANUARY 2020

Location

FAA Identifier: H37
Lat/Long: 40-08-19.4000N 120-10-47.9000W
40-08.323333N 120-10.798333W
40.1387222,-120.1799722
(estimated)
Elevation: 4062 ft. / 1238 m (estimated)
Variation: 16E (1985)
From city: 2 miles W of HERLONG, CA
Time zone: UTC -8 (UTC -7 during Daylight Saving Time)
Zip code: 96113

Airport Operations

Airport use: Open to the public
Activation date: 10/1964
Control tower: no
ARTCC: OAKLAND CENTER
FSS: RENO FLIGHT SERVICE STATION
NOTAMs facility: RNO (NOTAM-D service available)
Attendance: UNATNDD
Pattern altitude: 4862 ft. MSL
Wind indicator: yes
Segmented circle: yes

Airport Communications

CTAF: 122.9
WX AWOS-3 at AHC (8 nm N): 118.825 (530-827-4520)

Nearby radio navigation aids

VOR radial/distance  VOR name  Freq  Var
AHCr172/7.9AMEDEE VOR/DME109.0017E

Airport Services

Parking: tiedowns
Airframe service: NONE
Powerplant service: NONE
Bottled oxygen: NONE
Bulk oxygen: NONE

Runway Information

Runway 6/24

Dimensions: 3260 x 40 ft. / 994 x 12 m
Surface: asphalt, in good condition
Weight bearing capacity: 
Single wheel: 4.0
Gradient: NE
RUNWAY 6  RUNWAY 24
Latitude: 40-08.272833N40-08.372833N
Longitude: 120-11.142000W120-10.454500W
Elevation: 4046.0 ft.4062.0 ft.
Traffic pattern: leftleft
Markings: basic, in good conditionbasic, in good condition
Runway end identifier lights: nono
Obstructions: 40 ft. pline, 1125 ft. from runway, 23:1 slope to clear40 ft. pline, marked, 800 ft. from runway, 15:1 slope to clear
PWR LINE MKD WITH AVN ORANGE SPHERICAL MARKERS.

Airport Ownership and Management from official FAA records

Ownership: Publicly-owned
Owner: COUNTY OF LASSEN
707 NEVADA ST
SUSANVILLE, CA 96130
Phone 530-251-8288
Manager: PETER HEIMBINGER
707 NEVADA ST
SUSANVILLE, CA 96130
Phone 530-251-8299
LASSEN COUNTY PUBLIC WORKS OFFICE.

Airport Operational Statistics

Aircraft operations: avg 58/month *
100% transient general aviation
* for 12-month period ending 31 December 2018

Additional Remarks

+5FT BRUSH ALONG NORTHSIDE; 45 FT FROM RY CNTRLN.
FOR CD CTC OAKLAND ARTCC AT 510-745-3380.

Instrument Procedures

There are no published instrument procedures at H37.

Some nearby airports with instrument procedures:

KAHC - Amedee Army Airfield (8 nm N)
O02 - Nervino Airport (21 nm SW)
KSVE - Susanville Municipal Airport (23 nm NW)
KRTS - Reno/Stead Airport (32 nm SE)
KRNO - Reno/Tahoe International Airport (43 nm SE)
 
Loc | Ops | Rwys | IFR | FBO | Links
Com | Nav | Svcs | Stats | Notes
Area around H37 (Herlong Airport)
 
Road maps at: MapQuest Bing Google
 
Aerial photo
WARNING: Photo may not be current or correct
Aerial photo of H37 (Herlong Airport)
Do you have a better or more recent aerial photo of Herlong Airport that you would like to share? If so, please send us your photo.

 
Sectional chart

 
Airport distance calculator
Flying to Herlong Airport? Find the distance to fly.

From to H37

Sunrise and sunset
Times for 20-Feb-2020
 Local
(UTC-8)
 Zulu
(UTC)
Morning civil twilight06:2114:21
Sunrise06:4814:48
Sunset17:4101:41
Evening civil twilight18:0902:09

Current date and time
Zulu (UTC)  20-Feb-2020 12:31:54
Local (UTC-8)  20-Feb-2020 04:31:54
 
METAR
KSVE 
22nm NW 
201215Z AUTO 28004KT 10SM CLR M03/M10 A3023 RMK AO2
KRTS 
32nm SE 
201215Z AUTO 00000KT 10SM CLR M04/M15 A3023 RMK AO2
KRNO 
44nm SE 
201155Z 31003KT 10SM BKN180 M01/M11 A3023 RMK AO2 SLP235 T10111111 10028 21011 55001
TAF
KRNO 
44nm SE 
201120Z 2012/2112 VRB03KT P6SM BKN200 FM201900 11008KT P6SM SCT060 BKN200 FM210300 VRB05KT P6SM BKN200
KTRK 
49nm S 
201120Z 2012/2112 VRB03KT P6SM BKN180 FM202000 18006KT P6SM SCT040 BKN180 FM210300 VRB03KT P6SM BKN200
NOTAMs
Click for the latest NOTAMs
NOTAMs are issued by the DoD/FAA and will open in a separate window not controlled by AirNav.

 

 
 

Would you like to see your business listed on this page?

 If your business provides an interesting product or service to pilots, flight crews, aircraft, or users of the Herlong Airport, you should consider listing it here.  To start the listing process, click on the button below
 
Add a business
 

Other Pages about Herlong Airport

Update a link
 
Copyright © AirNav, LLC. All rights reserved. Privacy Policy  Contact